EW5167 Independent Hill VA US current weather conditions

sailwx.info

Wind from 041

Air temperature 21.1° C
Dewpoint 20.3° C

Last reported at 2020-Aug-09 08:02 UTC.
Time now 2020-Aug-09 08:37 UTC

Location: N 38°41' W 077°26'.
View on Google Maps.

See reports from other nearby stations

  
Tides and Currents Weather Stations Pressure Air Temp Water Temp Dewpoint Dewpoint Depression Visibility Wind Speed Wind Dir Waves Ship Positions
date/time (UTC)wind fromknots sea level pressurealtimeterstation pressurevisibilityair tempwater tempwave heightnotes
2020-Aug-09 08:02 041 21.1
2020-Aug-09 07:50 041 21.1
2020-Aug-09 07:39 041 21.1
2020-Aug-09 07:28 041 21.7
2020-Aug-09 07:17 041 21.7
2020-Aug-09 07:05 041 21.7
2020-Aug-09 06:54 041 21.1
2020-Aug-09 06:42 041 21.1
2020-Aug-09 06:31 041 21.1
2020-Aug-09 06:20 041 21.1
2020-Aug-09 06:08 041 21.1
2020-Aug-09 05:57 041 21.1
2020-Aug-09 05:46 041 21.1
2020-Aug-09 05:35 041 21.1
2020-Aug-09 05:24 041 21.1
2020-Aug-09 05:13 041 21.1
2020-Aug-09 05:02 041 21.1
2020-Aug-09 04:51 041 21.1
2020-Aug-09 04:40 041 21.1
2020-Aug-09 04:29 041 21.1
2020-Aug-09 04:18 041 21.7
2020-Aug-09 04:07 041 21.7
2020-Aug-09 03:56 041 21.7
2020-Aug-09 03:45 041 21.7
2020-Aug-09 03:34 041 22.2
2020-Aug-09 03:23 041 21.7
2020-Aug-09 03:12 041 22.2
2020-Aug-09 03:01 041 22.2
2020-Aug-09 02:50 041 22.2
2020-Aug-09 02:39 041 22.2
2020-Aug-09 02:28 041 22.2
2020-Aug-09 02:17 041 22.2
2020-Aug-09 02:06 041 22.2
2020-Aug-09 01:55 041 22.8
2020-Aug-09 01:43 041 22.8
2020-Aug-09 01:33 041 22.8
2020-Aug-09 01:22 041 22.8
2020-Aug-09 01:11 041 23.3
2020-Aug-09 01:00 041 23.3
2020-Aug-09 00:48 041 23.3
2020-Aug-09 00:38 041 23.9
2020-Aug-09 00:27 041 23.9
2020-Aug-09 00:16 041 24.4
2020-Aug-09 00:06 041 24.4
2020-Aug-08 23:55 041 25.0
2020-Aug-08 23:43 041 25.0
2020-Aug-08 23:32 041 25.6
2020-Aug-08 23:21 041 26.1
2020-Aug-08 23:10 041 26.7
2020-Aug-08 23:00 041 26.7
2020-Aug-08 22:49 041 27.2
2020-Aug-08 22:38 041 27.2
2020-Aug-08 22:27 039 27.8
2020-Aug-08 22:15 040 0 gusting 1 27.8
2020-Aug-08 22:04 040 28.3
2020-Aug-08 21:54 040 28.3
2020-Aug-08 21:43 033 28.3
2020-Aug-08 21:31 033 28.3
2020-Aug-08 21:20 032 28.3
2020-Aug-08 21:09 070 28.3
2020-Aug-08 20:58 046 27.2
2020-Aug-08 20:47 052 27.8
2020-Aug-08 20:36 057 0 gusting 2 28.3
2020-Aug-08 20:25 210 0 gusting 1 27.2
2020-Aug-08 20:14 148 0 gusting 3 26.7
2020-Aug-08 20:03 058 26.7
2020-Aug-08 19:51 075 0 27.8
2020-Aug-08 19:40 341 0 gusting 2 27.2
2020-Aug-08 19:28 042 0 gusting 1 26.7
2020-Aug-08 19:17 043 0 26.1
2020-Aug-08 19:05 043 26.1
2020-Aug-08 18:55 043 26.1
2020-Aug-08 18:43 043 0 26.1
2020-Aug-08 18:32 038 26.1
2020-Aug-08 18:21 023 26.7
2020-Aug-08 18:10 022 26.7
2020-Aug-08 17:58 022 26.7
2020-Aug-08 17:47 022 0 gusting 5 26.7
2020-Aug-08 17:35 142 0 gusting 2 26.7
2020-Aug-08 17:25 194 26.1
2020-Aug-08 17:13 040 26.1
2020-Aug-08 17:02 192 26.1
2020-Aug-08 16:50 088 0 26.1
2020-Aug-08 16:39 205 25.6
2020-Aug-08 16:28 205 25.0
2020-Aug-08 16:17 205 25.0
2020-Aug-08 16:05 205 0 gusting 5 25.0
2020-Aug-08 15:54 212 1 gusting 5 25.0
2020-Aug-08 15:42 212 0 gusting 5 25.0
2020-Aug-08 15:31 214 1 gusting 5 25.0
2020-Aug-08 15:20 216 1 gusting 3 25.0
2020-Aug-08 15:08 214 0 gusting 3 24.4
2020-Aug-08 14:57 193 0 gusting 2 23.9
2020-Aug-08 14:46 220 23.9
2020-Aug-08 14:35 106 23.9
2020-Aug-08 14:24 143 23.3
2020-Aug-08 14:13 143 23.3
2020-Aug-08 14:02 214 23.3
2020-Aug-08 13:51 062 22.8
2020-Aug-08 13:40 145 22.8
2020-Aug-08 13:29 145 22.8
2020-Aug-08 13:17 139 22.8
2020-Aug-08 13:06 154 22.2
2020-Aug-08 12:55 158 22.2
2020-Aug-08 12:44 052 21.7
2020-Aug-08 12:33 014 21.7
2020-Aug-08 12:21 008 21.7
2020-Aug-08 12:10 060 21.7
2020-Aug-08 11:59 048 21.7
2020-Aug-08 11:48 076 21.7
2020-Aug-08 11:37 056 21.7
2020-Aug-08 11:26 020 21.7
2020-Aug-08 11:15 311 21.7
2020-Aug-08 11:04 311 21.7
2020-Aug-08 10:53 311 21.7
2020-Aug-08 10:42 311 21.7
2020-Aug-08 10:32 311 21.7
2020-Aug-08 10:21 311 21.7
2020-Aug-08 10:10 311 21.7
2020-Aug-08 09:59 311 21.7
2020-Aug-08 09:48 311 21.7
2020-Aug-08 09:37 311 21.7
2020-Aug-08 09:26 311 21.7
2020-Aug-08 09:15 311 21.7
2020-Aug-08 09:04 311 21.1
2020-Aug-08 08:52 311 21.1
2020-Aug-08 08:42 311 21.1
2020-Aug-08 08:31 311 21.7
2020-Aug-08 08:20 311 21.7
2020-Aug-08 08:09 311 21.7
2020-Aug-08 07:58 311 21.7
2020-Aug-08 07:47 311 21.7
2020-Aug-08 07:36 311 21.7
2020-Aug-08 07:25 311 21.7
2020-Aug-08 07:14 311 22.2
2020-Aug-08 07:03 311 22.2
2020-Aug-08 06:52 311 22.2
2020-Aug-08 06:41 311 22.2
2020-Aug-08 06:30 311 22.2
2020-Aug-08 06:18 311 22.2
2020-Aug-08 06:07 311 22.2
2020-Aug-08 05:56 311 22.2
2020-Aug-08 05:45 311 22.2
2020-Aug-08 05:34 311 22.2
2020-Aug-08 05:23 311 22.2
2020-Aug-08 05:12 311 22.8
2020-Aug-08 05:01 311 22.8
2020-Aug-08 04:50 006 22.8
2020-Aug-08 04:38 006 22.8
2020-Aug-08 04:27 017 22.8
2020-Aug-08 04:15 318 22.8
2020-Aug-08 04:04 139 22.8
2020-Aug-08 03:53 117 22.8
2020-Aug-08 03:42 061 22.8
2020-Aug-08 03:31 061 22.8
2020-Aug-08 03:20 061 22.8
2020-Aug-08 03:09 061 22.8
2020-Aug-08 02:57 061 22.8
2020-Aug-08 02:46 061 23.3
2020-Aug-08 02:35 222 23.3
2020-Aug-08 02:24 222 23.3
2020-Aug-08 02:13 222 23.3
2020-Aug-08 02:02 222 23.3
2020-Aug-08 01:51 222 23.3
2020-Aug-08 01:40 222 23.3
2020-Aug-08 01:29 222 23.3
2020-Aug-08 01:18 222 23.9
2020-Aug-08 01:07 222 23.9
2020-Aug-08 00:55 222 23.9
2020-Aug-08 00:44 222 24.4
2020-Aug-08 00:33 222 24.4
2020-Aug-08 00:22 222 25.0
2020-Aug-08 00:11 222 25.0
2020-Aug-08 00:00 222 25.0
2020-Aug-07 23:49 222 25.6
2020-Aug-07 23:38 222 25.6
2020-Aug-07 23:26 222 26.1
2020-Aug-07 23:15 222 26.1
2020-Aug-07 23:04 222 26.7
2020-Aug-07 22:53 222 26.7
2020-Aug-07 22:43 222 26.7
2020-Aug-07 22:31 222 26.1
2020-Aug-07 22:20 222 26.7
2020-Aug-07 22:09 222 26.7
2020-Aug-07 21:58 222 26.7
2020-Aug-07 21:47 222 27.2
2020-Aug-07 21:35 224 1 gusting 9 28.3
2020-Aug-07 21:25 247 2 gusting 9 28.9
2020-Aug-07 21:13 222 0 gusting 2 29.4
2020-Aug-07 21:02 270 28.9
2020-Aug-07 20:51 203 1 gusting 7 29.4
2020-Aug-07 20:40 062 1 gusting 5 28.9
2020-Aug-07 20:28 023 0 gusting 3 28.3
2020-Aug-07 20:17 032 1 gusting 5 28.9
2020-Aug-07 20:05 228 0 gusting 3 28.9
2020-Aug-07 19:54 054 0 gusting 0 27.8
2020-Aug-07 19:42 054 28.9
2020-Aug-07 19:31 191 0 gusting 0 28.3
2020-Aug-07 19:20 037 0 gusting 2 28.3
2020-Aug-07 19:09 049 0 28.3
2020-Aug-07 18:58 269 1 gusting 7 27.8
2020-Aug-07 18:47 245 2 gusting 7 28.9
2020-Aug-07 18:36 286 1 gusting 6 28.9
2020-Aug-07 18:25 216 1 gusting 6 28.9
2020-Aug-07 18:14 180 1 gusting 2 27.8
2020-Aug-07 18:00 068 1 gusting 6 28.3
2020-Aug-07 17:49 207 1 gusting 6 28.3
2020-Aug-07 17:37 255 0 gusting 3 28.3
2020-Aug-07 17:26 017 1 gusting 6 28.3
2020-Aug-07 17:16 224 0 gusting 6 27.8
2020-Aug-07 17:05 247 0 gusting 3 27.8
2020-Aug-07 16:54 265 0 gusting 3 26.7
2020-Aug-07 16:43 247 26.7
2020-Aug-07 16:32 247 0 gusting 3 27.2
2020-Aug-07 16:20 317 1 gusting 6 27.2
2020-Aug-07 16:10 271 1 gusting 9 27.2
2020-Aug-07 15:58 245 1 gusting 9 26.7
2020-Aug-07 15:47 208 0 gusting 6 27.2
2020-Aug-07 15:36 046 0 gusting 3 26.1
2020-Aug-07 15:24 258 0 gusting 3 26.7
2020-Aug-07 15:13 009 0 gusting 3 26.7
2020-Aug-07 15:03 051 0 gusting 3 26.1
2020-Aug-07 14:52 020 0 gusting 3 26.1
2020-Aug-07 14:42 249 0 gusting 3 26.1
2020-Aug-07 14:30 051 0 gusting 3 25.6
2020-Aug-07 14:19 274 0 gusting 3 25.0
2020-Aug-07 14:09 062 25.0
2020-Aug-07 13:58 060 0 gusting 0 25.0
2020-Aug-07 13:47 048 0 gusting 2 24.4
2020-Aug-07 13:35 260 0 gusting 1 24.4
2020-Aug-07 13:24 210 0 gusting 3 23.9
2020-Aug-07 13:13 087 0 gusting 3 23.3
2020-Aug-07 13:03 072 22.8
2020-Aug-07 12:51 072 22.8
2020-Aug-07 12:40 072 22.2
2020-Aug-07 12:28 072 22.2
2020-Aug-07 12:21 072 22.2
2020-Aug-07 12:10 072 22.2
2020-Aug-07 11:59 072 22.2
2020-Aug-07 11:48 072 21.7
2020-Aug-07 11:36 072 21.7
2020-Aug-07 11:25 072 21.7
2020-Aug-07 11:14 072 21.1
2020-Aug-07 11:02 072 21.1
2020-Aug-07 10:51 072 21.1
2020-Aug-07 10:40 072 21.1
2020-Aug-07 10:28 072 21.1
2020-Aug-07 10:17 072 21.1
2020-Aug-07 10:06 072 21.1
2020-Aug-07 09:54 072 21.1
2020-Aug-07 09:43 072 21.1
2020-Aug-07 09:32 072 21.1
2020-Aug-07 09:21 072 21.1
2020-Aug-07 09:09 072 21.1
2020-Aug-07 08:58 072 21.1
2020-Aug-07 08:47 203 21.1
2020-Aug-07 08:36 203 21.1
2020-Aug-07 08:25 203 21.1
2020-Aug-07 08:14 203 21.1
2020-Aug-07 08:03 203 21.1